KI5NYZ Weather Reports


Display with metric or nautical units.
time (UTC)temp
F
wind
direction
speed
MPH
gust
MPH
rain 1hr
in
rain 24hr
in
rain mn
in
humidity
%
barometer
mb
20260502215519 68 314 5.0 8.0 0.00 0.01 0.00 37 1021.1
20260502214519 67 286 5.0 9.0 0.00 0.01 0.00 37 1021.2
20260502213521 67 267 3.0 7.0 0.00 0.01 0.00 38 1021.4
20260502212519 66 305 5.0 11.0 0.00 0.01 0.00 39 1021.4
20260502211519 67 262 4.0 9.0 0.00 0.01 0.00 38 1021.7
20260502210519 68 231 3.0 7.0 0.00 0.01 0.00 36 1021.8
20260502205519 66 230 2.0 7.0 0.00 0.01 0.00 40 1022.0
20260502204540 67 200 3.0 6.0 0.00 0.01 0.00 39 1022.1
20260502203520 68 274 4.0 8.0 0.00 0.01 0.00 38 1022.2
20260502202520 68 262 4.0 10.0 0.00 0.01 0.00 38 1022.2
20260502201540 67 270 4.0 9.0 0.00 0.01 0.00 38 1022.3
20260502200522 66 298 6.0 11.0 0.00 0.02 0.00 39 1022.4
20260502195541 66 308 4.0 10.0 0.00 0.02 0.00 40 1022.5
20260502194520 67 294 5.0 12.0 0.00 0.02 0.00 39 1022.5
20260502193602 66 340 2.0 7.0 0.00 0.02 0.00 40 1022.6
20260502192541 65 280 6.0 11.0 0.00 0.02 0.00 42 1022.7
20260502191521 64 257 4.0 10.0 0.00 0.02 0.00 43 1022.8
20260502190522 66 251 7.0 13.0 0.00 0.02 0.00 41 1022.9
20260502185521 65 293 5.0 9.0 0.00 0.02 0.00 41 1023.0
20260502184523 65 240 5.0 10.0 0.00 0.03 0.00 41 1023.1
20260502183518 64 287 5.0 10.0 0.00 0.03 0.00 43 1023.2
20260502182519 65 344 4.0 11.0 0.00 0.03 0.00 42 1023.3
20260502181519 65 240 4.0 9.0 0.00 0.03 0.00 42 1023.4
20260502180519 63 253 6.0 10.0 0.00 0.04 0.00 44 1023.5
20260502170521 62 271 7.0 11.0 0.00 0.06 0.00 50 1023.9
20260502163521 60 318 3.0 5.0 0.00 0.06 0.00 52 1024.0
20260502162521 60 261 4.0 8.0 0.00 0.06 0.00 55 1024.1
20260502161541 59 245 3.0 7.0 0.00 0.07 0.00 55 1024.1
20260502160523 59 246 2.0 6.0 0.00 0.07 0.00 57 1024.1
20260502151518 57 29 1.0 3.0 0.00 0.08 0.00 60 1024.0
20260502150521 57 283 1.0 3.0 0.00 0.09 0.00 59 1024.0
20260502130521 49 8 4.0 6.0 0.00 0.17 0.00 77 1023.0
20260502123521 48 350 3.0 4.0 0.00 0.18 0.00 80 1022.5
20260502122541 48 4 3.0 5.0 0.00 0.18 0.00 81 1022.4
20260502121521 47 357 2.0 4.0 0.00 0.19 0.00 81 1022.3
20260502120523 47 360 3.0 5.0 0.00 0.19 0.00 81 1022.3
20260502115519 47 1 3.0 4.0 0.00 0.19 0.00 82 1022.3
20260502113518 47 354 3.0 5.0 0.00 0.19 0.00 83 1022.2
20260502112544 47 359 3.0 5.0 0.00 0.20 0.00 84 1022.1
20260502111519 48 346 4.0 5.0 0.00 0.20 0.00 84 1022.1
20260502110535 48 348 3.0 5.0 0.00 0.20 0.00 85 1022.0
20260502105521 48 343 4.0 5.0 0.00 0.20 0.00 84 1021.8
20260502104520 49 337 3.0 4.0 0.00 0.20 0.00 85 1021.8
20260502103521 49 343 3.0 3.0 0.00 0.21 0.00 85 1021.7
20260502102540 49 346 2.0 4.0 0.00 0.21 0.00 86 1021.7
20260502101519 49 339 3.0 5.0 0.00 0.21 0.00 85 1021.7
20260502100520 50 333 3.0 5.0 0.00 0.21 0.00 85 1021.7
20260502090520 51 338 2.0 3.0 0.00 0.21 0.00 72 1021.2
20260502071519 50 247 0.0 1.0 0.00 0.21 0.00 77 1021.8
20260502070519 50 0 0.0 0.0 0.00 0.21 0.00 76 1021.8
20260502065520 50 163 0.0 1.0 0.00 0.21 0.00 75 1021.7
20260502064523 50 134 0.0 2.0 0.00 0.21 0.00 74 1021.7
20260502063521 51 129 0.0 2.0 0.00 0.21 0.00 71 1021.6
20260502062523 51 117 1.0 2.0 0.00 0.21 0.00 72 1021.6
20260502061520 51 136 0.0 2.0 0.00 0.21 0.00 72 1021.7
20260502060521 51 85 0.0 0.0 0.00 0.21 0.00 73 1021.7
20260502055521 51 49 0.0 1.0 0.00 0.21 0.00 74 1021.7
20260502054521 51 43 0.0 1.0 0.00 0.21 0.00 73 1021.7
20260502053523 51 0 0.0 0.0 0.00 0.21 0.00 72 1021.8
20260502052524 51 353 0.0 0.0 0.00 0.21 0.00 72 1021.8
20260502051521 51 337 0.0 1.0 0.00 0.21 0.00 72 1021.7
20260502050522 51 321 0.0 1.0 0.00 0.21 0.00 73 1021.6
20260502045522 51 356 1.0 2.0 0.00 0.21 0.21 72 1021.4
20260502043519 51 15 0.0 3.0 0.00 0.21 0.21 74 1021.1
20260502042541 51 14 2.0 3.0 0.00 0.21 0.21 77 1020.8
20260502041519 52 0 0.0 0.0 0.00 0.21 0.21 76 1020.6
20260502040519 52 347 0.0 1.0 0.00 0.21 0.21 74 1020.6
20260502035519 52 356 1.0 2.0 0.00 0.21 0.21 72 1020.6
20260502034541 52 344 1.0 3.0 0.00 0.21 0.21 71 1020.6
20260502033519 52 352 0.0 2.0 0.00 0.21 0.21 70 1020.4
20260502032520 52 316 0.0 0.0 0.00 0.21 0.21 70 1020.2
20260502031519 53 0 0.0 0.0 0.00 0.21 0.21 67 1019.9
20260502030520 53 0 0.0 0.0 0.00 0.21 0.21 65 1019.6
20260502025541 54 331 0.0 0.0 0.00 0.21 0.21 60 1019.5
20260502024521 54 149 0.0 1.0 0.00 0.21 0.21 59 1019.3
20260502023520 55 0 0.0 0.0 0.00 0.21 0.21 58 1019.1
20260502022543 55 132 0.0 2.0 0.00 0.21 0.21 54 1019.0
20260502021520 56 143 0.0 2.0 0.00 0.21 0.21 53 1018.9
20260502020521 56 118 1.0 3.0 0.00 0.21 0.21 44 1018.7
20260502015522 56 132 1.0 4.0 0.00 0.21 0.21 51 1018.8
20260502014520 55 52 0.0 1.0 0.00 0.21 0.21 54 1019.0
20260502013524 56 47 0.0 0.0 0.00 0.21 0.21 54 1019.0
20260502012519 56 0 0.0 0.0 0.00 0.21 0.21 54 1018.8
20260502011518 56 63 1.0 3.0 0.00 0.21 0.21 50 1018.8
20260502010519 57 58 1.0 3.0 0.00 0.21 0.21 47 1018.8
20260502005522 56 51 3.0 8.0 0.00 0.21 0.21 46 1018.7
20260502004519 56 36 3.0 5.0 0.00 0.21 0.21 48 1018.6
20260502003542 56 75 1.0 3.0 0.00 0.21 0.21 51 1018.5
20260502002520 57 47 1.0 3.0 0.00 0.21 0.21 49 1018.5
20260502001540 57 84 2.0 6.0 0.00 0.21 0.21 48 1018.3
20260502000521 56 77 2.0 4.0 0.00 0.21 0.21 50 1018.2
20260501235539 56 46 1.0 2.0 0.00 0.21 0.21 58 1018.2
20260501234520 56 121 0.0 2.0 0.00 0.21 0.21 57 1018.1
20260501233520 56 122 0.0 2.0 0.00 0.21 0.21 62 1018.1
20260501232521 56 97 0.0 1.0 0.00 0.21 0.21 62 1017.9
20260501231521 55 0 0.0 0.0 0.00 0.21 0.21 65 1017.9
20260501230521 55 122 0.0 2.0 0.01 0.21 0.21 68 1017.7
20260501225521 54 104 0.0 1.0 0.01 0.21 0.21 70 1017.6
20260501224521 54 81 0.0 3.0 0.01 0.21 0.21 70 1017.5
20260501223521 54 76 1.0 4.0 0.01 0.21 0.21 70 1017.2
20260501222519 54 54 1.0 2.0 0.01 0.21 0.21 79 1017.1
20260501221522 54 63 1.0 2.0 0.01 0.21 0.21 80 1017.0
20260501220518 54 92 1.0 4.0 0.01 0.21 0.20 80 1016.9